Weather History for Page, AZ

Change the Weather History Date:

Friday, November 9, 2012

  Actual Average Record
Temperature  
Mean Temperature 56 °F -  
Max Temperature 68 °F 57 °F 70 °F (2006)
Min Temperature 44 °F 37 °F 28 °F (1986)
Degree Days  
Heating Degree Days 9    
Growing Degree Days 6 (Base 50)    
Moisture  
Dew Point 34 °F    
Average Humidity 42    
Maximum Humidity 58    
Minimum Humidity 18    
Precipitation  
Precipitation 0.00 in - - ()
Sea Level Pressure  
Sea Level Pressure 29.57 in    
Wind  
Wind Speed 16 mph (SSW)    
Max Wind Speed 22 mph    
Max Gust Speed 39 mph    
Visibility 10 miles    
Events      
Averages and records for this station are not official NWS values.
T = Trace of Precipitation, MM = Missing Value Source: NWS Daily Summary

Daily Weather History Graph

Daily Weather History Graph

Search for Another Location

Airport:

Trip Planner

Search our weather history database for the weather conditions in past years. The results will help you decide how hot, cold, wet, or windy it might be!

Date:

Astronomy

Nov. 09, 2012 Rise Set
Actual Time 6:58 AM MST 5:20 PM MST
Civil Twilight 6:31 AM MST 5:47 PM MST
Nautical Twilight 6:00 AM MST 6:18 PM MST
Astronomical Twilight 5:29 AM MST 6:49 PM MST
Moon 2:07 AM MST (11/9) 2:29 PM MST (11/9)
Length of Visible Light 11h 16m
Length of Day
10h 21m
Waning Crescent, 22% of the Moon is Illuminated
Nov 9
Waning Crescent
Nov 13
New
Nov 20
First Quarter
Nov 28
Full
Dec 6
Last Quarter

Hourly Weather History & Observations

Time (MST) Temp. Windchill Dew Point Humidity Pressure Visibility Wind Dir Wind Speed Gust Speed Precip Events Conditions
12:53 AM 57.9 °F - 39.9 °F 51% 29.69 in 10.0 mi SSE 16.1 mph - N/A   Mostly Cloudy
1:53 AM 57.0 °F - 41.0 °F 55% 29.66 in 10.0 mi SSE 13.8 mph 23.0 mph 0.00 in   Mostly Cloudy
2:53 AM 57.9 °F - 41.0 °F 53% 29.65 in 10.0 mi South 17.3 mph 26.5 mph N/A   Mostly Cloudy
3:53 AM 57.9 °F - 39.9 °F 51% 29.63 in 10.0 mi South 15.0 mph 25.3 mph N/A   Scattered Clouds
4:53 AM 57.9 °F - 39.9 °F 51% 29.63 in 10.0 mi SSE 16.1 mph 27.6 mph N/A   Overcast
5:53 AM 57.0 °F - 39.9 °F 53% 29.62 in 10.0 mi SSE 20.7 mph 29.9 mph N/A   Overcast
6:53 AM 55.9 °F - 39.0 °F 53% 29.62 in 10.0 mi Variable 4.6 mph 16.1 mph N/A   Overcast
7:53 AM 57.0 °F - 39.0 °F 51% 29.62 in 10.0 mi South 10.4 mph 20.7 mph N/A   Overcast
8:53 AM 59.0 °F - 39.0 °F 48% 29.60 in 10.0 mi SSE 18.4 mph 24.2 mph N/A   Overcast
9:53 AM 63.0 °F - 39.9 °F 43% 29.58 in 10.0 mi South 21.9 mph 31.1 mph N/A   Mostly Cloudy
10:53 AM 66.0 °F - 39.9 °F 38% 29.55 in 10.0 mi South 18.4 mph 27.6 mph N/A   Mostly Cloudy
11:53 AM 66.9 °F - 30.9 °F 26% 29.51 in 10.0 mi SSW 19.6 mph 32.2 mph N/A   Partly Cloudy
12:53 PM 66.9 °F - 30.0 °F 25% 29.47 in 9.0 mi SSW 20.7 mph 31.1 mph N/A   Scattered Clouds
1:53 PM 66.0 °F - 30.0 °F 26% 29.46 in 10.0 mi SW 15.0 mph 26.5 mph N/A   Partly Cloudy
2:53 PM 64.0 °F - 32.0 °F 30% 29.45 in 4.0 mi SSW 21.9 mph 39.1 mph N/A   Haze
3:53 PM 62.1 °F - 33.1 °F 34% 29.46 in 10.0 mi SW 12.7 mph 25.3 mph N/A   Clear
4:53 PM 60.1 °F - 28.0 °F 30% 29.46 in 10.0 mi SSW 20.7 mph 33.4 mph N/A   Clear
5:53 PM 57.9 °F - 30.0 °F 35% 29.48 in 10.0 mi SSW 11.5 mph 26.5 mph N/A   Clear
6:53 PM 55.0 °F - 30.9 °F 40% 29.53 in 10.0 mi SSW 13.8 mph 20.7 mph N/A   Clear
7:53 PM 54.0 °F - 33.1 °F 45% 29.54 in 10.0 mi SW 5.8 mph 16.1 mph N/A   Partly Cloudy
8:53 PM 45.0 °F 39.3 °F 30.9 °F 58% 29.59 in 10.0 mi WNW 11.5 mph 18.4 mph N/A   Mostly Cloudy
9:53 PM 44.1 °F 37.4 °F 27.0 °F 51% 29.60 in 10.0 mi WNW 13.8 mph 24.2 mph N/A   Overcast
10:53 PM 44.1 °F 37.7 °F 27.0 °F 51% 29.60 in 10.0 mi West 12.7 mph 23.0 mph N/A   Overcast
11:53 PM 44.1 °F 38.1 °F 21.9 °F 42% 29.60 in 10.0 mi WNW 11.5 mph 26.5 mph N/A   Overcast